Weather History for Iowa City, IA

Change the Weather History Date:

Sunday, February 10, 2013

  Actual Average Record
Temperature  
Mean Temperature 42 °F 25 °F  
Max Temperature 52 °F 33 °F 60 °F (1999)
Min Temperature 32 °F 17 °F -17 °F (2011)
Degree Days  
Heating Degree Days 23 40  
Month to date heating degree days 387 411  
Since 1 July heating degree days 3997 4278  
Cooling Degree Days 0 0  
Month to date cooling degree days 0 0  
Year to date cooling degree days 0 0  
Moisture  
Dew Point 37 °F    
Average Humidity 82    
Maximum Humidity 100    
Minimum Humidity 63    
Precipitation  
Precipitation 0.37 in 0.05 in 0.67 in (1959)
Month to date precipitation 0.91 0.40  
Year to date precipitation 2.05 1.32  
Sea Level Pressure  
Sea Level Pressure 29.58 in    
Wind  
Wind Speed 14 mph (SSE)    
Max Wind Speed 32 mph    
Max Gust Speed 43 mph    
Visibility 6 miles    
Events Rain    
T = Trace of Precipitation, MM = Missing Value Source: NWS Daily Summary

Daily Weather History Graph

Daily Weather History Graph

Search for Another Location

Airport:

Trip Planner

Search our weather history database for the weather conditions in past years. The results will help you decide how hot, cold, wet, or windy it might be!

Date:

Astronomy

Feb. 10, 2013 Rise Set
Actual Time 7:07 AM CST 5:33 PM CST
Civil Twilight 6:38 AM CST 6:02 PM CST
Nautical Twilight 6:06 AM CST 6:35 PM CST
Astronomical Twilight 5:33 AM CST 7:07 PM CST
Moon 6:56 AM CST (2/10) 6:26 PM CST (2/10)
Length of Visible Light 11h 23m
Length of Day
10h 26m
New Moon, 0% of the Moon is Illuminated
Feb 10
New Moon
Feb 17
First Quarter
Feb 25
Full
Mar 4
Last Quarter
Mar 11
New

Hourly Weather History & Observations

Time (CST) Temp. Windchill Dew Point Humidity Pressure Visibility Wind Dir Wind Speed Gust Speed Precip Events Conditions
12:52 AM 33.1 °F 25.5 °F 30.0 °F 89% 29.96 in 7.0 mi ESE 9.2 mph - 0.01 in Rain Light Rain
1:52 AM 33.1 °F 24.9 °F 30.9 °F 92% 29.94 in 6.0 mi ESE 10.4 mph - 0.05 in Rain Light Rain
2:52 AM 34.0 °F 26.0 °F 32.0 °F 92% 29.91 in 7.0 mi SE 10.4 mph - 0.02 in Rain Light Rain
3:15 AM 33.8 °F 26.4 °F 32.0 °F 93% 29.88 in 5.0 mi SE 9.2 mph - 0.01 in Rain Light Rain
3:52 AM 34.0 °F 25.5 °F 33.1 °F 96% 29.88 in 5.0 mi SE 11.5 mph - 0.03 in   Overcast
4:52 AM 34.0 °F 26.0 °F 33.1 °F 96% 29.83 in 3.0 mi SE 10.4 mph - 0.01 in Rain Light Rain
5:04 AM 33.8 °F 26.4 °F 33.8 °F 100% 29.81 in 3.0 mi SE 9.2 mph - 0.00 in Rain Light Rain
5:11 AM 33.8 °F 25.8 °F 33.8 °F 100% 29.80 in 2.5 mi SE 10.4 mph - 0.00 in Rain Light Rain
5:23 AM 35.6 °F 28.0 °F 33.8 °F 93% 29.79 in 3.0 mi SE 10.4 mph - 0.01 in Rain Light Rain
5:52 AM 35.1 °F 27.4 °F 34.0 °F 96% 29.77 in 3.0 mi ESE 10.4 mph - 0.02 in   Overcast
6:52 AM 36.0 °F 26.7 °F 35.1 °F 97% 29.73 in 4.0 mi SE 15.0 mph - N/A   Overcast
7:52 AM 36.0 °F 27.5 °F 35.1 °F 97% 29.69 in 4.0 mi ESE 12.7 mph - 0.02 in Rain Light Rain
8:52 AM 37.0 °F 28.1 °F 36.0 °F 96% 29.66 in 2.5 mi SE 15.0 mph - 0.09 in Rain Rain
8:59 AM 37.4 °F 28.5 °F 35.6 °F 93% 29.63 in 3.0 mi SE 15.0 mph - 0.02 in Rain Rain
9:40 AM 37.4 °F 29.3 °F 37.4 °F 100% 29.58 in 7.0 mi ESE 12.7 mph 21.9 mph 0.05 in Rain Light Rain
9:52 AM 37.9 °F 30.0 °F 37.0 °F 97% 29.58 in 7.0 mi ESE 12.7 mph 21.9 mph 0.06 in Rain Light Rain
10:18 AM 37.4 °F 27.5 °F 37.4 °F 100% 29.54 in 2.5 mi SE 18.4 mph 23.0 mph 0.03 in Rain Rain
10:30 AM 39.2 °F 31.6 °F 37.4 °F 93% 29.53 in 5.0 mi SE 12.7 mph 20.7 mph 0.03 in Rain Light Rain
10:52 AM 39.0 °F 31.0 °F 37.9 °F 96% 29.54 in 7.0 mi SSE 13.8 mph - 0.03 in   Overcast
11:20 AM 39.2 °F 32.5 °F 39.2 °F 100% 29.51 in 1.8 mi SSE 10.4 mph 19.6 mph 0.01 in Rain Light Rain
11:38 AM 39.2 °F 31.6 °F 39.2 °F 100% 29.50 in 2.0 mi SSE 12.7 mph - 0.02 in Rain Light Rain
11:52 AM 39.9 °F 33.9 °F 39.9 °F 100% 29.50 in 2.5 mi SE 9.2 mph - 0.02 in Rain Light Rain
12:09 PM 41.0 °F 35.8 °F 41.0 °F 100% 29.48 in 1.5 mi SSE 8.1 mph - 0.00 in Rain Light Rain
12:23 PM 42.8 °F 35.8 °F 42.8 °F 100% 29.46 in 3.0 mi SE 13.8 mph - 0.01 in Rain Light Rain
12:52 PM 44.1 °F 37.1 °F 43.0 °F 96% 29.45 in 9.0 mi SSE 15.0 mph - 0.01 in   Overcast
1:52 PM 45.0 °F 39.3 °F 44.1 °F 97% 29.40 in 8.0 mi SSE 11.5 mph - N/A   Overcast
2:00 PM 46.4 °F 41.5 °F 44.6 °F 93% 29.39 in 8.0 mi SSE 10.4 mph - N/A   Overcast
2:34 PM 46.4 °F 41.1 °F 44.6 °F 93% 29.36 in 9.0 mi SE 11.5 mph - N/A   Overcast
2:52 PM 48.0 °F - 46.0 °F 93% 29.37 in 10.0 mi SSE 10.4 mph - N/A   Overcast
3:11 PM 48.2 °F - 46.4 °F 93% 29.35 in 10.0 mi SE 10.4 mph - N/A   Overcast
3:31 PM 50.0 °F - 46.4 °F 87% 29.34 in 10.0 mi SSE 12.7 mph - N/A   Mostly Cloudy
3:52 PM 51.1 °F - 48.0 °F 89% 29.35 in 10.0 mi SSE 10.4 mph - N/A   Scattered Clouds
4:52 PM 51.1 °F - 39.0 °F 63% 29.36 in 10.0 mi SSW 17.3 mph 25.3 mph N/A   Mostly Cloudy
5:52 PM 46.9 °F - 36.0 °F 66% 29.42 in 10.0 mi SW 12.7 mph - N/A   Overcast
6:52 PM 45.0 °F 39.3 °F 34.0 °F 65% 29.44 in 10.0 mi SW 11.5 mph - N/A   Overcast
7:52 PM 42.1 °F 32.3 °F 32.0 °F 67% 29.47 in 10.0 mi SW 24.2 mph 36.8 mph N/A   Overcast
8:52 PM 39.0 °F 28.8 °F 30.9 °F 73% 29.50 in 10.0 mi SW 21.9 mph 40.3 mph N/A   Overcast
9:01 PM 39.2 °F 29.3 °F 30.2 °F 70% 29.49 in 10.0 mi SW 20.7 mph 35.7 mph N/A   Overcast
9:52 PM 37.9 °F 26.6 °F 30.9 °F 76% 29.52 in 10.0 mi WSW 25.3 mph 39.1 mph N/A   Overcast
10:52 PM 36.0 °F 23.9 °F 28.9 °F 76% 29.54 in 10.0 mi WSW 25.3 mph 33.4 mph N/A   Overcast
11:52 PM 35.1 °F 23.8 °F 27.0 °F 72% 29.57 in 10.0 mi WSW 20.7 mph 36.8 mph N/A   Overcast